User: anonymous   Login
Location: Ferma
(41.9500°N, 44.5167°E)
Time: 04:59:27
(UTC+00:00)
Language:

H-2A R/B - Orbit

View from above orbital plane
View from above orbital plane
View from above satellite
View from above satellite

Ground track
Ground track

The orbit data is extracted from the following two-line orbital elements,

1 28932U 06002B   22021.59269549  .00001390  00000-0  13101-3 0  9990
2 28932  98.3111  55.9744 0087023 212.6826 263.9647 14.92903726868125
Epoch (UTC): 21 January 2022 14:13:28
Eccentricity: 0.0087023
inclination: 98.3111°
perigee height: 528 km
apogee height: 649 km
right ascension of ascending node: 55.9744°
argument of perigee: 212.6826°
revolutions per day: 14.92903726
mean anomaly at epoch: 263.9647°
orbit number at epoch: 86812

The dashed part of the orbit path shows where the satellite is in the earth's shadow,  

DLR